Tracking 29042 objects as of 22-Jun-2024
HD Live streaming from Space Station
objects crossing your sky now

USA 374

Track USA 374 now!
10-day predictions


NORAD ID: 59834
Int'l Code: 2024-096W
Perigee: 348.5 km
Apogee: 352.6 km
Inclination: 69.7 °
Period: 91.4 minutes
Semi major axis: 6721 km
RCS: Unknown
Launch date: May 22, 2024
Source: United States (US)
Launch site: AIR FORCE WESTERN TEST RANGE (AFWTR)
Your satellite tracking list
Your tracking list is empty




NASA's NSSDC Master Catalog

Two Line Element Set (TLE):
1 59834U 24096W   24151.84765659 -.00688000  00000-0 -45286-2 0    07
2 59834  69.7000  52.2902 0003033  73.8485 286.1514 15.75416689    06
Source of the keplerian elements: McCants